map of SCON home
SCON - Airport
Location
City:  Quellón, Los Lagos, Chile
ICAO:SCON

Details
Type:Airport (Aerodrome, Airfield)
Latitude:43°08'07"S (-43.135277)
Longitude:73°37'56"W (-73.632221)
Elevation:39 ft (12 m)
Variation:9.74°E (WMM2015v2 magnetic declination)
-0.11° annual change
Runways:1
Longest:4265 ft (1300 m)

Weather
METAR:SCON 041400Z VRB02KT CAVOK 23/15 Q1009

Related Locations
Nearby:
Farthest:ZMKB: 12417 mi / 19983 km
Khanbogd [Khanbumbat Airport (Oyu Tolgoi Airport, Oyut Airport)], 053, MN

Find:

   beyond  
but within

Other Information
Maps:
NOTAMs:
Links:
Sources:

  
  • flag of Chile
  • flag of Los Lagos
  

Sectional Chart

Flight Planning
at skyvector.com

Satellite Image

Google Maps Satellite view

 

Copyright © 2004-2019 Karl L. Swartz. All rights reserved.
The Great Circle Mapper name and logo are trademarks of the Great Circle Mapper.
All other trademarks mentioned herein belong to their respective owners.
Please see credits for attibutions and further copyright information.

  Follow gcmap on Facebook Follow gcmap on Twitter GCmap on LinkedIn

hCard Microformat

Geo Microformat